Showing default

INMARSAT 5-F2, 40384

Orbit data source: Space-Track

INMARSAT 5-F2, 40384 is a payload satellite owned by INMARSAT-Ltd (UK) in GEO that was launched on Sun, 01 Feb 2015 UTC via a PROTON-M/BRIZ-M launch vehicle from the Tyuratam Missile And Space Complex (TTMTR). Payload-class satellites include a variety of spacecraft equipped with specific instruments for various scientific and technological missions. These include communications satellites like Starlink; space stations such as the ISS; scientific satellites like the Hubble; Earth observation satellites from companies like Planet Labs, Umbra, and HawkEye 360; GPS; miniature CubeSats for education and research; and military/defense satellites.

Loading next visibility...
Identifier
40384, 2015-005A
Orbit
GEO
Last TLE update
4 hours ago
Origin
Manufacturer
Boeing/ES
Mission
Operational Commercial Communications
Bus & Motor
BSS-702HP, R-4D
Mass
6,070 kg wet, 3,700 kg dry
Launch date (UTC)
2015-02-01 (10 years ago)
Launch vehicle
PROTON-M/BRIZ-M
Launch site
Tyuratam Missile And Space Complex (TTMTR)
Object type
Payload
Rocket body
Debris
Shape & HBR
Box + 2 Pan, 33.8 m
Radar Cross Section
53.751 m², Large (>1 m²)

Expand to show TLE details & history

TLE from 4 hours ago
0 INMARSAT 5-F2
1 40384U 15005A   25129.15686997 -.00000279  00000-0  00000+0 0  9998
2 40384   0.0083 238.4833 0000369  85.0934 265.1050  1.00271991 37627
Epoch: 2025-05-09T03:45Z
Definitive object data (Epoch: 2025-05-09T03:45:53.565Z)
Latitude
-0.01026°
Longitude
-55.01667°
Altitude
35,786.164 km
Speed
3.075 km/s
True Right ascension
15h 14m 41s
True Declination
0° 00' 37"
Sunlit
Object was in daylight at TLE epoch
Visualization TLE readout
Latitude
0.0174°
Longitude
2.82087°
Altitude
35,784.809 km
Speed
3.075 km/s
Apparent Right ascension
19h 28m 03s
Apparent Declination
-5° 54' 36"
Sunlit
Object is in daylight
Visualization observer readout
Local Sidereal Time
15:45:38
Azimuth
118.169° SE
Elevation
21.402°
Doppler factor
1
Orbital elements
Apogee altitude
35,789.164 km
Perigee altitude
35,786.052 km
Semi-major axis
42,165.745 km
Eccentricity
0.0000369
Inclination
0.0083°
RAAN
238.4833°
Arg. of periapsis
85.0934°
True anomaly
265.10079°
Mean anomaly
265.105°
Eccentric anomaly
265.10289°
Mean motion
0.25067 °/min
BSTAR
Unknown
Orbital period
1436.15 mins
Loading historical data...
40384 neighbors
Loading maneuver chart data...
Loading SW <> Apogee altitude chart data...
Loading historical data...
Loading historical data...
Loading historical data...
Loading historical data...
Loading historical data...
Loading historical data...
Loading historical data...
Other satellites on launch #5 in the year 2015 (2015-02-01 UTC)

INMARSAT 5-F2 Visibility forecast

Observer location: undefined°, undefined°

Span
Click to sort rows by Start time (UTC) header in descending order
Start Az.
Max El. time (UTC)
Max El. Az.
Max El.
End time (UTC)
End Az.
1440 mins2025-05-09 07:36:36.367Z118.184° SE2025-05-09 11:53:36.367Z118.172° SE20.045°2025-05-10 07:36:36.367Z118.188° SE
|